QPF
0.00 0.00 0.00 0.00 0.00 0.00 0.00 0.00 0.00 0.00 0.00 0.00 0.00 0.00 0.00 0.00 0.00 0.00 0.00 0.00 0.00 0.00
0.00 0.00 0.00 0.00 0.00 0.00 0.00 0.00 0.00 0.00 0.00 0.00 0.00 0.00 0.00 0.00 0.00 0.00 0.00 0.00 0.00 0.00
0.00 0.00 0.00 0.00 0.00 0.00 0.00 0.00 0.00 0.00 0.00 0.00 0.00 0.00 0.00 0.00 0.00 0.00 0.00 0.00 0.00 0.00
0.00 0.00 0.00 0.00 0.00 0.00 0.00 0.00 0.00 0.00 0.00 0.00 0.00 0.00 0.00 0.00 0.00 0.00 0.00 0.00 0.00 0.00
0.00 0.00 0.00 0.00 0.00 0.00 0.00 0.00 0.00 0.00 0.00 0.00 0.00 0.00 0.00 0.00 0.00 0.00 0.00 0.00 0.00 0.00
0.00 0.00 0.00 0.00 0.00 0.00 0.00 0.00 0.00 0.00 0.00 0.00 0.00 0.00 0.00 0.00 0.00 0.00 0.00 0.00 0.00 0.00
0.00 0.00 0.00 0.00 0.00 0.00 0.00 0.00 0.00 0.00 0.00 0.00 0.00 0.00 0.00 0.00 0.00 0.00 0.00 0.00 0.00 0.00
0.00 0.00 0.00 0.00 0.00 0.00 0.00 0.00 0.00 0.00 0.00 0.00 0.00 0.00 0.00 0.00 0.00 0.00 0.00 0.00 0.00 0.00
0.00 0.00 0.00 0.00 0.00 0.00 0.00 0.00 0.00 0.00 0.00 0.00 0.01 0.01 0.00 0.00 0.00 0.00 0.00 0.00 0.00 0.00
0.00 0.00 0.00 0.00 0.00 0.00 0.00 0.00 0.00 0.00 0.00 0.01 0.03 0.07 0.05 0.02 0.00 0.00 0.00 0.00 0.01 0.00
0.00 0.00 0.00 0.00 0.00 0.00 0.00 0.00 0.00 0.00 0.00 0.00 0.06 0.09 0.09 0.04 0.00 0.00 0.00 0.00 0.00 0.00
0.00 0.00 0.00 0.00 0.00 0.00 0.00 0.00 0.00 0.00 0.00 0.01 0.04 0.09 0.06 0.03 0.00 0.00 0.00 0.00 0.00 0.00
0.00 0.00 0.00 0.00 0.00 0.00 0.00 0.00 0.00 0.00 0.01 0.03 0.03 0.08 0.05 0.00 0.00 0.00 0.00 0.00 0.00 0.00
0.00 0.00 0.00 0.00 0.00 0.01 0.08 0.01 0.01 0.01 0.01 0.04 0.04 0.02 0.00 0.00 0.00 0.00 0.00 0.00 0.00 0.00
MSLP
1010.98 1011.47 1011.96 1012.30 1012.82 1013.10 1013.44 1013.81 1014.20 1014.58 1014.91 1015.25 1015.67 1016.07 1016.44 1016.98 1017.37 1017.40 1017.43 1016.49 1016.80 1017.87
1010.24 1010.79 1011.21 1011.60 1012.01 1012.43 1012.66 1013.17 1013.56 1014.06 1014.56 1015.02 1015.44 1015.81 1016.45 1016.90 1017.08 1017.30 1017.70 1017.82 1017.73 1016.97
1009.27 1010.03 1010.56 1011.04 1011.34 1011.70 1012.07 1012.44 1013.11 1013.66 1014.16 1014.64 1015.09 1015.59 1016.21 1016.57 1016.89 1017.41 1017.44 1017.43 1017.54 1017.49
1008.38 1009.21 1010.01 1010.40 1010.62 1010.94 1011.40 1011.96 1012.53 1013.11 1013.62 1014.09 1014.60 1015.04 1015.65 1016.10 1016.48 1016.89 1017.06 1017.27 1017.49 1017.51
1007.61 1008.42 1009.19 1009.57 1009.92 1010.24 1010.76 1011.21 1011.72 1012.33 1012.99 1013.52 1014.09 1014.62 1015.22 1015.80 1016.12 1016.55 1016.89 1017.06 1017.35 1017.35
1006.84 1007.47 1008.03 1008.56 1009.08 1009.56 1009.94 1010.44 1011.11 1011.63 1012.17 1012.82 1013.42 1014.07 1014.64 1015.38 1015.98 1016.43 1016.64 1016.74 1016.98 1017.06
1005.70 1006.16 1006.77 1007.46 1008.14 1008.67 1009.14 1009.68 1010.27 1010.75 1011.35 1012.04 1012.69 1013.37 1014.12 1014.79 1015.24 1015.73 1016.17 1016.52 1016.63 1016.73
1004.48 1005.23 1006.14 1006.82 1007.30 1007.92 1008.52 1008.90 1009.52 1010.28 1011.01 1011.65 1012.37 1012.84 1013.17 1013.41 1013.79 1014.63 1015.29 1015.74 1016.13 1016.24
1003.73 1004.54 1005.22 1005.97 1006.56 1007.17 1007.77 1008.51 1009.08 1009.78 1010.47 1011.20 1011.65 1012.03 1012.57 1013.02 1013.83 1014.50 1015.00 1015.35 1015.60 1015.74
1002.64 1003.44 1004.19 1005.07 1005.79 1006.38 1006.98 1007.73 1008.32 1009.08 1009.75 1010.41 1011.05 1011.54 1012.33 1012.96 1013.61 1014.04 1014.63 1014.96 1015.17 1015.34
1001.20 1002.21 1003.25 1004.14 1004.77 1005.56 1006.30 1006.86 1007.61 1008.36 1009.10 1009.85 1010.68 1011.11 1011.79 1012.51 1013.11 1013.68 1013.98 1014.36 1014.53 1014.83
999.95 1001.04 1002.21 1003.06 1003.88 1004.70 1005.52 1006.33 1007.05 1007.72 1008.59 1009.54 1010.27 1010.91 1011.67 1012.39 1012.86 1013.44 1013.79 1014.00 1014.22 1014.43
999.04 1000.05 1001.13 1002.17 1003.27 1004.05 1004.95 1005.87 1006.64 1007.48 1008.16 1008.87 1009.82 1010.65 1011.36 1011.95 1012.51 1013.06 1013.37 1013.53 1013.72 1013.92
998.58 999.51 1000.46 1001.62 1002.71 1003.71 1004.71 1005.62 1006.48 1007.35 1008.23 1008.96 1009.63 1010.43 1011.10 1011.73 1012.24 1012.56 1012.97 1013.31 1013.44 1013.41
Thickness
5813 5810 5806 5805 5802 5799 5796 5795 5794 5789 5785 5781 5776 5770 5764 5758 5751 5748 5744 5747 5741 5732
5815 5811 5809 5808 5806 5802 5801 5799 5796 5791 5786 5780 5776 5769 5763 5756 5751 5747 5739 5735 5729 5731
5817 5813 5812 5809 5807 5806 5804 5802 5797 5792 5787 5781 5775 5769 5762 5756 5750 5741 5738 5734 5728 5723
5818 5815 5813 5811 5810 5810 5808 5803 5798 5794 5789 5783 5776 5770 5762 5756 5749 5742 5736 5729 5725 5722
5821 5818 5815 5814 5813 5813 5809 5807 5803 5796 5789 5783 5776 5769 5761 5752 5747 5740 5734 5729 5721 5717
5825 5823 5821 5819 5817 5814 5813 5809 5804 5798 5790 5783 5776 5768 5761 5751 5742 5736 5731 5726 5719 5713
5832 5831 5829 5825 5821 5817 5814 5809 5804 5800 5792 5785 5778 5770 5761 5752 5744 5736 5729 5722 5716 5711
5841 5835 5829 5825 5823 5820 5815 5811 5805 5797 5790 5783 5775 5769 5764 5759 5752 5740 5729 5721 5714 5709
5843 5837 5832 5827 5823 5819 5814 5808 5803 5795 5787 5779 5776 5771 5763 5756 5745 5735 5725 5717 5711 5707
5847 5840 5835 5829 5823 5819 5814 5809 5803 5795 5788 5781 5774 5766 5757 5751 5740 5731 5720 5712 5707 5701
5852 5845 5838 5830 5825 5819 5814 5809 5802 5795 5788 5780 5771 5763 5753 5745 5736 5725 5717 5709 5704 5697
5857 5847 5839 5831 5825 5820 5813 5805 5800 5794 5785 5775 5766 5757 5747 5737 5728 5718 5710 5704 5698 5692
5858 5849 5840 5834 5825 5819 5811 5802 5796 5787 5781 5773 5761 5750 5740 5732 5721 5713 5706 5700 5695 5690
5854 5847 5841 5832 5824 5814 5802 5795 5787 5778 5769 5762 5754 5744 5734 5724 5717 5709 5701 5694 5688 5683